Skip Page Navigation
NASA JPL Caltech
NASA Logo - Jet Propulsion Laboratory + View the NASA Portal
+ Center for Near-Earth Object Studies
JPL Home Earth Solar System Stars & Galaxies Technology
JPL Solar System Dynamics
BODIES ORBITS EPHEMERIDES TOOLS PHYSICAL DATA DISCOVERY FAQ SITE MAP
IMPORTANT: The SSD Announcement email list is now available. Major changes are coming in the near future, including possible hostname and/or URL changes. To be notified of such changes, subscribe to this email list.

Please visit this page for more details.


JPL Small-Body Database Browser
Search: [ help ]  
15298 (1992 EB13)
Classification: Main-belt Asteroid          SPK-ID: 2015298
Ephemeris | Orbit Diagram | Orbital Elements | Mission Design | Physical Parameters | Discovery Circumstances | Close-Approach Data ]

[ show orbit diagram ]
Orbital Elements at Epoch 2459000.5 (2020-May-31.0) TDB
Reference: JPL 33 (heliocentric ecliptic J2000)
 Element Value Uncertainty (1-sigma)   Units 
e .1237886870668519 3.5896e-08  
a 2.380938725554211 8.5646e-09 au
q 2.086205446731232 8.4896e-08 au
i 4.106776061102893 3.8282e-06 deg
node 306.5380670435055 5.316e-05 deg
peri 7.773612555493234 5.5596e-05 deg
M 101.4499554865135 1.4962e-05 deg
tp 2458622.344766587466
(2019-May-18.84476659)
5.6169e-05 TDB
period 1341.901860633242
3.67
7.2405e-06
1.982e-08
d
yr
n .2682759526319729 1.4475e-09 deg/d
Q 2.67567200437719 9.6248e-09 au
  Orbit Determination Parameters
   # obs. used (total)      1754  
   data-arc span      12198 days (33.40 yr)  
   first obs. used      1986-09-11  
   last obs. used      2020-02-03  
   planetary ephem.      DE431  
   SB-pert. ephem.      SB431-N16  
   condition code      0  
   norm. resid. RMS      .51544  
   source      ORB  
   producer      Otto Matic  
   solution date      2020-Feb-22 21:15:38  

Additional Information
 Earth MOID = 1.07233 au 
 Jupiter MOID = 2.56824 au 
 T_jup = 3.524 
[ show covariance matrix ]

Ephemeris | Orbit Diagram | Orbital Elements | Mission Design | Physical Parameters | Discovery Circumstances | Close-Approach Data ]

Physical Parameter Table
Parameter Symbol Value Units Sigma Reference Notes
absolute magnitude H 14.2   n/a MPO449062  
diameter diameter 4.104 km 0.256 urn:nasa:pds:neowise_diameters_albedos::2.0[mainbelt] (http://adsabs.harvard.edu/abs/2011ApJ...741...68M)  
geometric albedo albedo 0.289   0.104 urn:nasa:pds:neowise_diameters_albedos::2.0[mainbelt] (http://adsabs.harvard.edu/abs/2011ApJ...741...68M)  

15298 (1992 EB13)          Discovered 1992-Mar-02 by UESAC at La Silla
Reference: 20000621/Numbers.arcLast Updated: 2004-04-19

[ show close-approach data ]
Alternate Designations
 1992 EB13 = 1986 RD14 
Ephemeris | Orbit Diagram | Orbital Elements | Mission Design | Physical Parameters | Discovery Circumstances | Close-Approach Data ]
ABOUT SSD CREDITS/AWARDS PRIVACY/COPYRIGHT GLOSSARY LINKS
FirstGov 2020-Feb-25 23:09 UT
(server date/time)  
NASA Home Page
Site Manager:   Ryan S. Park
Webmaster  Alan B. Chamberlin